www.pogodaiklimat.ru

Погода и климат >> Архив погоды >> Нигер >> Агадес


ПОГОДА в Агадесе

  • Прогноз погоды в Агадесе
  • Монитор погоды в Агадесе

АРХИВ ПОГОДЫ в Агадесе

Время (UTC), дата Ветер
(напр.,м/с)
 
Видим.   Явления Облачность Т
(С)
Тd
(С)
f
(%)
Тe
(С)
Тes
(С)
Комфортность P
(гПа)
Po
(гПа)
Тmin
(С)
Tmax
(С)
R
(мм)
R24
(мм)
S
(см)
12 9.06 ЮВ 16 10 км 9/1 900 м
[Cu med, cong Ac trans Cs]
+40.7 +19.4 29 +45 +45 опасность
перегрева
1009.4 955.5
15 9.06 В 10 10 км 9/3 900 м
[Cb cap Ac As Ci sp]
+40.5 +17.5 26 +43 +43 опасность
перегрева
1006.8 953.0
18 9.06 С 10 10 км гроза без осадков {метель} 9/3 1200 м
[Cb cap Ac As Ci sp]
+32.0 +20.3 50 +39 +39 очень
душно
1008.5 953.9 +42.0 2
06 10.06 З 2 10 км 6/0
[Ac trans Ci sp]
+30.0 +18.9 51 +35 +36 очень
душно
1009.7 955.0 +29.5 2
09 10.06 В 4 10 км 4/0
[Ci sp]
+36.4 +14.5 27 +37 +47 очень
жарко
1009.6 955.5
12 10.06 Ю 10 10 км 1/0
[Ci sp]
+39.8 +12.0 19 +39 +40 очень
жарко
1007.7 953.9
15 10.06 ЮЗ 2 10 км 4/0
[Ac trans Ci sp]
+40.7 +12.8 19 +40 +47 очень
жарко
1005.5 951.9
18 10.06 штиль 0 10 км 8/0
[Ac trans Ci sp]
+38.0 +13.4 23 +38 +38 очень
жарко
1004.9 950.9 +41.5
06 11.06 З 6 10 км 9/0
[Cs]
+27.5 +19.3 61 +33 +33 очень
душно
1008.6 954.2 +26.4
09 11.06 СЗ 12 8000 м пыль 9/0
[Cs]
+35.0 +17.8 36 +39 +39 очень
душно
1009.5 955.2
12 11.06 СВ 2 5000 м пыль 9/4 1200 м
[Cb cap Ci sp]
+39.0 +18.8 31 +43 +54 опасность
перегрева
1007.8 953.8
15 11.06 В 4 6000 м пыль 8/4 1200 м
[Cb cap Ci sp]
+39.0 +17.4 28 +42 +45 опасность
перегрева
1005.6 951.5
18 11.06 З 16 4000 м пыльный позёмок {гроза} 9/0
[Ac trans Cs]
+35.2 +18.6 38 +40 +40 очень
душно
1005.8 951.3 +40.5
06 12.06 СЗ 4 10 км 6/0
[Ac trans Ci sp]
+27.5 +18.4 58 +32 +33 очень
душно
1009.9 955.1 +27.3
09 12.06 СЗ 8 10 км 6/0
[Ci sp]
+33.0 +20.7 48 +40 +42 очень
душно
1010.6 955.9
12 12.06 ЮВ 6 6000 м пыль 6/0
[Ci sp]
+38.3 +19.4 33 +43 +50 опасность
перегрева
1008.7 954.5
15 12.06 штиль 0 6000 м пыль 6/3 900 м
[Cu hum Ci sp]
+40.0 +17.8 28 +43 +51 опасность
перегрева
1006.8 952.7
18 12.06 З 2 10 км 6/0
[Ci sp]
+38.0 +18.0 31 +41 +41 опасность
перегрева
1006.3 952.0 +41.0
06 13.06 СЗ 2 10 км 4/0
[Ac trans Ci sp]
+30.3 +19.5 52 +36 +37 очень
душно
1010.1 955.8 +29.5
09 13.06 С 2 10 км 4/0
[Ac trans Ci sp]
+35.0 +19.0 39 +40 +53 опасность
солнечного
удара
1011.2 957.0
12 13.06 ЮВ 8 10 км 6/1 1200 м
[Cu hum Ac trans Ci sp]
+40.9 +18.1 27 +44 +47 опасность
перегрева
1009.3 955.5
15 13.06 ЮВ 14 10 км 9/1 1200 м
[Cu med, cong Ac cast Ci sp]
+40.5 +18.4 28 +44 +44 опасность
перегрева
1007.1 953.3
18 13.06 Ю 6 10 км 8/0
[Ac cast Ci sp]
+38.3 +17.4 29 +41 +41 опасность
перегрева
1007.8 953.7 +42.8
06 14.06 С 4 7000 м пыль 6/0
[Ac trans Ci sp]
+30.5 +13.9 36 +32 +33 жарко 1009.7 955.5 +29.5
09 14.06 ЮВ 6 10 км 4/0
[Ac trans Ci sp]
+38.8 +13.0 22 +39 +44 очень
жарко
1009.8 956.0
12 14.06 ЮВ 15 10 км 4/3 1500 м
[Cu hum Ci sp]
+42.7 +20.3 28 +48 +48 опасность
перегрева
1008.2 954.7
15 14.06 В 12 10 км 8/1 1500 м
[Cu med, cong Ac cast Ci sp]
+43.0 +17.1 22 +45 +45 опасность
перегрева
1006.3 952.8
18 14.06 ЮВ 10 10 км 9/0
[Ac cast Ci sp]
+40.2 +11.9 19 +40 +40 очень
жарко
1007.0 953.1 +44.0
06 15.06 В 6 10 км 3/0
[Ci sp]
+30.5 +7.5 24 +29 +30 жарко 1009.6 955.6 +29.8
09 15.06 В 6 10 км ясно +37.0 +15.4 28 +39 +44 очень
душно
1010.8 956.9
12 15.06 Ю 12 10 км 3/1 1000 м
[Cu hum Ci sp]
+40.5 +8.8 15 +39 +39 очень
жарко
1009.3 955.6
15 15.06 В 10 10 км 3/0
[Ci sp]
+41.2 +9.6 15 +39 +40 очень
жарко
1007.0 953.4
18 15.06 В 10 10 км ясно +39.8 +8.0 15 +38 +38 очень
жарко
1007.4 953.4 +43.0
06 16.06 В 4 10 км 3/0
[Ci sp]
+29.5 +6.9 24 +28 +29 жарко 1010.3 956.2 +29.5

 

Местоположение метеостанции Агадес (Нигер): широта 16.97 долгота 7.97 высота над уровнем моря 502 м.

В архиве по умолчанию представлена погода в Агадесе за последнюю неделю. Архивные данные за месяц целиком и за предыдущие месяцы, начиная с января 2011 года, Вы можете получить, выбрав интересующий диапазон дат из раскрывающегося списка и нажав кнопку "Ввод!".


*Определитесь, кто Вы:
робот инопланетянин человек

Внимание! Время в таблицах - всемирное. Для получения местного времени необходимо прибавить поправку, которая равна 1 ч.

Смотрите также архив погоды в соседних городах и на ближайших метеорологических станциях:

Погода в Зиндере (Нигер) (371 км)
Погода в Тахве (Нигер) (371 км)
Погода в Ин-Геззаме (Алжир) (372 км)
Погода в Ин-Геззам аэропорту (Алжир) (372 км)
Погода в Маради (Нигер) (401 км)
Погода в Гуре (Нигер) (416 км)
Погода в Кацине (Нигерия) (440 км)
Погода в Анебарака (Алжир) (445 км)
Погода в Магарьа (Нигер) (456 км)
Погода в Вирнин-Конни (Нигер) (458 км)

Пояснения к столбцам:

Ветер - указаны скорость ветра в м/с - средняя за 10 мин, порывы в срок и между сроками (в фигурных скобках) и направление, откуда дует ветер: С - северный, СВ - северо-восточный, В - восточный, ЮВ - юго-восточный, Ю - южный, ЮЗ - юго-западный, З - западный, СЗ - северо-западный.
Видимость - горизонтальная дальность видимости в метрах или километрах. При видимости от 1 до 10 км при отсутствии осадков обычно наблюдается дымка, при ухудшении видимости до 1 км и менее - туман. В сухую погоду видимость может ухудшаться дымом, пылью или мглою.
Явления - указаны атмосферные явления, наблюдавшиеся в срок или в последний час перед сроком; фигурными скобками обозначены явления, наблюдавшиеся между сроками (за 1-3 часа до срока); квадратными скобками обозначены град или гололедные отложения с указанием их диаметра в мм.
Облачность - указаны через наклонную черту общая и нижняя облачность в баллах и высота нижней границы облаков в метрах; квадратными скобками обозначены формы облаков: Ci - перистые, Cs - перисто-слоистые, Cc - перисто-кучевые, Ac - высококучевые, As - высокослоистые, Sc - слоисто-кучевые, Ns - слоисто-дождевые, Cu - кучевые, Cb - кучево-дождевые. Подробнее классификацию облаков см. в Атласе облаков (PDF).
T - Температура воздуха - температура, измеренная на высоте 2 м над землей.
Td - Температура точки росы - температура, при понижении до которой содержащийся в воздухе водяной пар достигнет насыщения.
f - Относительная влажность воздуха - влажноcть воздуха, измеренная на высоте 2 м над землей.
Te - Эффективная температура - температура, которую ощущает одетый по сезону человек в тени. Характеристика душности погоды. При расчете учитывается влияние влажности воздуха и скорости ветра на теплоощущения человека.
Tes - Эффективная температура на солнце - температура, которую ощущает человек, с поправкой на солнечный нагрев. Характеристика знойности погоды. Зависит от высоты солнца над горизонтом, облачности и скорости ветра. Ночью, в пасмурную погоду, а также при ветре 12 м/с и более поправка равна нулю.
P - Атмосферное давление - приведенное к уровню моря атмосферное давление.
Po - Атмосферное давление - измеренное на уровне метеостанции атмосферное давление.
Tmin - Минимальная температура - минимум температуры воздуха на высоте 2 м над землей.
Tmax - Максимальная температура - максимум температуры воздуха на высоте 2 м над землей.
R - Количество осадков - Количество выпавших осадков за период времени, мм. При наведении курсора мыши на число - период времени, за который выпало указанное количество осадков.
R24 - Количество осадков - Количество выпавших осадков за 24 часа, мм.
S - Снежный покров - Высота снежного покрова, см. При наведении курсора мыши на число - состояние снежного покрова и степень покрытия местности в баллах.